Theta_e
338 338 337 337 341 340 337 337 336 332 334 339 340 340 339 339 339 338 337 337 337 337 337 336 335 335 333 333 332 331 331 331 331 330 330 329 329 330 328 327 327 325 324 326 327 326 326 328 328 326 328 328 327 328 328 328 330 331 331 332 331 330 330 330 329 330 330 329 330 330 329 329 329 329 328 327 327 327 326 326 326 325 326 326 325
335 335 336 337 340 340 336 336 335 331 331 338 340 339 339 339 338 339 338 338 338 337 337 337 335 335 334 332 332 331 331 331 331 330 329 329 329 329 328 327 326 326 325 326 327 326 327 328 327 327 329 328 327 328 328 329 329 329 330 330 330 330 330 330 330 330 330 329 329 330 330 329 328 329 328 327 327 327 326 326 327 326 326 326 326
334 334 335 336 338 337 333 332 334 330 330 337 339 338 338 338 338 339 339 338 338 337 337 337 335 334 334 332 331 331 331 332 331 330 329 329 329 329 328 327 327 327 326 326 327 327 327 327 327 328 329 327 327 327 326 328 329 329 330 329 328 329 329 330 330 329 329 328 328 329 329 329 328 328 328 328 328 327 327 327 327 326 326 325 326
332 333 334 335 336 334 330 332 334 331 329 334 337 338 338 336 336 338 339 338 338 337 337 336 335 335 334 333 332 331 332 332 331 330 330 329 329 329 329 328 328 327 326 327 327 327 327 327 327 328 327 326 327 327 325 327 329 329 329 328 327 327 328 329 330 329 327 327 328 328 328 328 328 328 328 328 328 327 327 327 327 326 325 325 325
329 330 330 332 335 333 330 331 333 331 327 331 337 339 336 333 333 336 337 338 338 337 337 335 335 335 334 333 332 332 332 331 331 330 330 329 329 329 329 329 327 326 326 327 327 326 326 326 327 327 325 324 326 327 327 328 328 329 328 327 327 327 326 328 329 328 327 328 327 327 327 328 327 328 328 327 327 327 327 328 327 326 325 325 325
327 328 327 330 334 334 332 330 332 332 327 331 338 337 333 329 329 330 332 337 338 337 336 335 335 335 334 334 333 332 332 331 330 329 329 329 329 329 329 328 327 326 326 326 326 325 325 325 324 324 323 323 324 326 329 329 328 327 327 328 328 327 327 327 327 328 329 329 328 326 326 327 326 327 328 328 328 327 327 327 327 325 324 324 324
327 327 326 328 332 333 332 331 335 336 331 334 338 334 330 329 329 330 331 336 337 337 337 336 335 335 334 333 333 333 331 330 329 328 328 329 329 329 329 328 327 326 325 326 326 326 326 324 323 323 324 325 323 325 329 329 328 326 325 328 329 328 328 328 326 327 329 328 328 327 326 326 326 326 327 327 328 327 326 326 325 324 323 323 323
329 330 330 331 333 333 331 332 338 339 335 336 337 332 331 329 329 333 334 333 335 336 336 336 335 335 334 334 333 332 330 329 329 328 328 328 328 328 328 328 326 325 325 326 326 327 327 327 326 325 327 327 325 326 328 329 329 326 326 328 329 329 329 328 326 326 327 327 328 327 327 326 326 325 326 326 326 326 326 325 323 323 323 322 322
332 334 334 335 337 338 337 338 341 339 337 338 337 332 331 329 328 333 336 332 332 335 336 336 335 334 334 333 332 330 329 329 329 327 327 328 327 327 327 327 325 325 326 327 327 328 328 328 328 328 329 329 327 326 327 329 329 327 327 328 328 328 328 328 326 326 327 327 327 327 327 327 326 326 327 326 326 326 326 323 321 322 323 322 322
334 334 335 336 338 340 340 341 341 340 340 340 335 331 332 330 326 329 335 335 331 334 336 335 335 334 333 332 330 329 329 329 329 327 327 327 326 325 326 326 326 326 327 328 329 329 329 329 328 328 329 328 328 327 327 328 328 327 328 328 328 327 327 327 326 325 326 327 327 327 327 327 327 327 327 327 326 326 326 323 321 321 322 322 321
334 335 337 338 339 340 341 341 340 339 340 338 334 331 329 329 327 328 335 336 334 334 335 334 334 334 333 332 330 329 329 328 328 327 327 327 325 325 327 327 328 328 328 328 329 330 329 329 329 329 329 328 329 329 328 328 329 328 328 328 328 328 328 328 327 326 327 327 327 327 327 327 327 327 327 327 326 326 325 324 321 321 322 321 320
333 332 335 340 342 342 341 342 340 339 338 337 335 332 328 328 330 329 333 336 335 334 334 333 333 333 332 331 329 328 328 328 327 328 327 327 326 327 328 328 328 329 329 329 329 330 330 330 329 330 330 330 330 330 329 329 328 328 327 327 329 329 328 327 326 327 327 327 327 327 327 327 327 326 326 326 326 325 325 324 322 320 320 320 318
336 335 338 341 343 343 342 343 342 339 337 336 335 335 334 334 333 332 334 336 335 335 334 333 333 333 332 330 328 327 328 328 327 327 326 325 325 325 327 328 329 329 329 329 330 330 329 329 330 330 330 330 331 330 329 329 328 327 327 327 328 328 327 326 326 327 328 327 327 327 326 325 326 327 326 327 326 325 325 324 323 321 320 318 316
336 337 339 341 342 342 342 342 341 340 337 335 334 335 337 337 337 335 336 337 336 334 334 333 333 333 333 330 327 326 328 328 327 324 323 323 322 323 326 328 328 327 328 328 328 329 329 328 329 329 329 330 330 329 329 328 328 328 327 327 327 327 327 326 325 326 327 327 327 327 325 324 326 327 326 326 326 326 325 324 322 321 319 316 315
332 334 335 337 338 338 340 340 340 339 338 336 335 335 335 336 336 337 337 337 336 334 333 333 333 333 333 329 325 325 327 328 327 324 323 324 325 326 327 328 327 327 328 328 327 327 328 327 328 328 328 328 329 329 328 327 327 328 328 327 326 326 327 326 325 325 325 326 327 327 324 323 325 326 326 325 326 326 324 323 322 319 316 315 316
329 330 331 332 332 332 334 334 334 336 336 335 335 335 334 332 333 335 336 336 335 333 333 334 334 333 332 329 325 326 327 328 328 326 326 327 327 327 328 329 329 328 328 327 326 325 325 324 325 327 327 327 328 328 327 326 326 326 327 327 326 326 326 325 324 324 324 325 326 326 324 323 324 325 324 324 325 324 324 323 322 320 315 314 316
327 328 329 329 328 329 330 329 329 331 332 332 333 334 333 333 332 333 334 335 335 334 333 334 334 333 331 328 326 327 328 328 328 327 328 328 328 328 329 329 329 327 326 325 324 322 322 322 322 324 325 326 327 327 327 326 324 324 327 328 327 326 326 325 323 323 324 325 326 325 324 324 324 324 324 324 324 324 324 323 321 320 316 313 314
326 327 327 327 327 328 328 328 328 329 329 330 331 333 333 334 334 332 333 334 333 333 334 334 333 332 330 328 327 327 327 326 327 327 327 327 327 328 328 327 326 325 323 322 321 321 322 323 325 325 324 324 326 327 327 326 324 323 325 327 327 327 327 325 323 322 323 324 324 324 324 324 324 325 324 324 324 324 324 322 319 318 316 313 313
324 325 326 326 326 326 327 327 327 328 329 329 330 332 332 333 334 334 333 333 331 331 333 334 333 330 328 327 327 328 327 325 326 327 327 326 325 326 326 324 323 323 322 321 320 321 323 325 327 327 324 322 325 328 328 326 324 323 324 325 326 326 326 325 324 323 322 322 324 324 324 324 324 325 324 324 324 324 324 322 318 315 314 313 312
322 323 323 323 323 324 325 326 327 327 328 329 330 331 331 331 332 332 332 332 330 331 333 334 332 329 326 327 329 329 328 327 328 329 328 326 325 324 324 323 322 321 318 318 318 320 324 326 326 326 323 321 322 324 325 324 324 325 324 323 324 325 326 325 324 324 322 322 323 324 324 324 323 324 323 323 324 324 323 322 319 315 314 315 313
320 320 321 321 321 323 324 325 327 327 327 328 329 331 331 331 331 330 330 330 330 330 331 332 332 329 326 328 330 330 328 328 330 330 328 327 325 324 323 321 319 316 315 317 319 320 323 324 323 323 322 323 324 324 323 321 320 323 324 323 323 324 325 324 324 324 323 322 322 322 323 324 324 324 323 322 323 324 323 322 320 317 318 320 316
318 318 318 320 320 322 323 324 326 326 327 327 328 330 330 330 330 328 327 329 329 329 330 331 331 330 328 329 330 330 328 329 330 329 328 328 325 322 320 318 318 316 315 318 320 322 322 322 323 325 324 324 325 326 326 323 320 321 324 323 323 324 325 324 324 323 323 323 322 322 323 323 323 324 323 323 324 324 324 322 320 319 320 321 318
317 317 317 317 318 320 323 324 325 325 326 326 327 328 328 329 330 328 328 330 329 329 330 330 330 331 331 330 330 330 329 329 330 329 329 326 321 319 318 318 317 317 318 319 320 322 323 323 324 325 326 326 325 325 326 326 324 323 323 323 323 324 324 325 324 323 323 323 323 322 322 322 323 323 323 324 324 324 323 321 320 319 319 318 317
315 315 315 315 316 318 321 322 322 323 325 326 327 327 327 328 329 329 330 329 328 329 330 329 328 329 330 329 330 330 329 330 330 329 327 323 319 318 318 318 318 320 321 319 318 321 324 323 323 324 325 325 324 323 324 325 325 326 325 324 323 323 323 324 324 323 322 323 322 322 322 323 323 323 323 324 324 324 323 320 320 320 319 317 316
313 314 314 313 314 315 316 318 319 321 323 325 327 327 327 328 328 329 329 328 328 329 330 328 327 327 328 329 330 330 330 330 329 328 326 322 319 318 317 317 319 322 322 319 318 322 323 322 321 321 322 323 323 323 324 323 324 324 324 324 324 323 323 323 323 322 323 323 323 323 323 323 324 323 323 323 324 324 323 320 320 320 318 316 315
311 312 312 311 311 312 313 315 316 319 321 323 325 326 327 328 328 329 329 328 328 329 329 328 328 327 327 329 330 330 330 329 328 328 325 322 320 319 318 318 320 321 321 318 319 321 321 321 321 321 321 323 324 324 324 323 323 323 322 322 323 323 322 322 322 322 323 323 324 325 324 324 324 324 323 323 323 324 323 321 320 319 317 315 314
309 310 309 309 309 310 311 312 314 317 319 321 322 323 325 327 327 328 327 328 329 329 329 329 328 327 328 329 329 329 329 329 328 328 325 322 320 319 318 319 320 320 320 319 320 321 320 321 323 323 322 323 323 323 323 323 323 323 323 322 322 322 322 323 323 322 321 322 323 324 325 325 324 324 324 324 323 323 322 321 321 319 316 314 313
308 308 308 307 308 308 309 310 312 315 317 319 319 320 322 324 326 327 327 328 329 329 330 329 328 328 328 328 328 328 328 329 328 328 326 323 321 321 319 320 321 320 320 320 321 321 320 321 322 322 323 323 322 322 322 322 322 322 322 322 322 322 322 322 323 322 322 322 322 322 323 324 324 324 324 323 323 323 322 321 321 319 316 314 314
307 307 307 306 307 307 307 308 310 312 314 316 317 318 319 322 324 326 327 327 328 329 330 330 329 329 329 328 327 327 328 328 328 328 326 323 322 321 321 322 322 321 320 320 321 321 320 321 321 321 321 321 321 321 321 322 322 322 322 322 321 321 321 322 322 322 322 322 321 321 321 323 324 325 324 323 323 323 322 321 320 319 317 316 314
307 306 306 306 306 306 306 307 309 310 311 313 314 314 316 318 321 323 325 326 327 328 329 329 329 329 328 328 327 326 326 328 328 328 326 324 323 323 323 324 322 320 319 320 320 320 320 320 320 320 319 320 320 321 320 321 322 322 322 322 321 321 321 321 321 321 321 321 321 321 321 322 323 324 324 323 323 322 321 321 320 319 318 316 315
306 306 305 306 306 307 307 307 308 309 310 310 311 311 312 314 316 319 321 324 325 327 328 328 327 327 327 327 327 326 326 327 327 327 326 325 325 324 324 324 321 319 319 319 319 320 320 320 320 319 319 319 319 320 320 320 320 321 321 321 322 321 321 321 320 320 320 320 320 320 320 320 321 321 322 322 322 322 322 321 320 319 319 317 316
305 305 305 305 306 306 306 307 308 309 309 309 310 310 311 312 314 316 318 320 322 324 326 327 327 326 326 327 327 327 327 327 327 327 326 326 325 325 324 322 320 319 318 318 319 320 320 320 320 319 319 319 318 318 319 319 319 319 320 321 321 320 320 320 319 320 320 319 319 320 320 320 320 320 320 320 321 321 321 321 321 320 320 319 319
304 304 305 305 306 306 306 307 308 308 308 309 309 310 310 311 313 314 316 318 320 322 324 326 327 326 326 327 327 327 327 327 327 326 326 325 325 324 322 320 319 318 317 318 319 319 319 319 319 318 317 317 318 317 317 318 319 319 320 320 320 320 320 320 320 320 319 319 319 320 320 319 319 319 319 319 319 319 319 320 321 321 321 320 319
302 302 303 303 304 305 306 307 308 308 308 308 309 309 310 310 312 314 315 316 318 320 322 324 326 326 325 326 327 327 326 327 327 326 325 325 324 322 320 318 318 317 317 317 318 318 318 318 318 317 314 312 315 316 316 317 318 318 319 319 319 319 319 319 320 319 319 319 319 319 319 318 317 317 318 318 318 317 317 317 319 320 320 320 319
301 301 301 301 301 302 304 306 307 308 308 308 308 308 309 310 311 312 314 314 315 316 319 321 323 324 324 324 325 325 325 325 325 325 325 324 322 320 319 318 318 317 317 317 317 317 318 318 318 318 312 307 309 312 314 315 316 317 318 317 318 319 320 320 320 320 320 320 319 319 318 318 318 317 317 316 316 317 317 317 317 318 318 319 318
302 301 301 300 300 300 300 302 304 306 307 307 307 308 309 310 310 311 312 313 314 314 314 315 317 319 322 324 324 325 325 325 325 324 323 322 321 320 319 319 318 317 317 318 318 318 318 318 317 315 310 307 308 309 310 311 312 314 316 316 318 320 320 320 320 320 320 320 320 320 319 319 319 319 318 317 316 316 317 317 317 317 317 317 316
301 301 300 300 300 299 298 300 302 303 304 306 306 307 309 310 310 311 311 312 313 312 312 313 312 313 317 320 321 322 323 324 324 323 322 321 320 320 320 319 318 318 319 319 319 318 317 316 315 313 312 311 311 310 310 309 309 310 313 316 318 320 320 320 320 320 320 321 321 320 320 319 319 320 319 318 317 317 318 317 316 316 315 315 315
301 300 300 300 299 298 298 298 299 300 301 303 305 307 308 308 308 309 310 310 311 310 311 312 312 312 313 314 315 317 319 321 322 322 321 322 321 321 321 320 320 320 319 319 318 317 315 314 314 313 313 313 313 312 312 311 311 311 313 315 316 317 318 319 319 319 320 320 320 320 320 319 319 319 319 318 318 317 317 317 317 316 316 316 316
301 301 300 300 300 299 298 298 299 299 300 300 302 304 306 306 306 307 308 308 307 307 307 309 310 311 311 312 312 312 313 317 320 319 319 320 320 320 320 320 319 318 317 317 316 315 314 315 314 314 314 314 313 313 313 313 313 315 315 316 316 317 318 318 318 319 319 319 319 319 319 318 317 317 316 317 317 317 316 316 315 315 314 314 313
301 301 301 301 300 300 300 300 300 301 300 300 300 300 301 302 303 305 305 305 305 305 305 306 308 309 310 310 310 310 311 313 316 315 315 316 316 316 316 317 316 315 315 314 314 314 314 314 314 314 314 314 313 313 313 313 314 315 316 316 317 318 318 317 317 317 316 316 316 316 316 315 315 314 314 314 314 313 312 311 310 310 309 308 308
300 300 301 301 301 300 300 301 301 301 301 301 301 301 300 300 300 301 302 302 303 304 305 305 306 307 308 308 309 309 310 311 312 313 313 313 314 314 314 314 314 313 313 313 313 314 313 313 313 313 314 314 315 315 314 314 314 315 315 315 316 316 316 315 315 314 314 314 313 312 312 312 311 311 310 310 309 308 308 307 307 306 305 305 304
300 300 300 301 301 301 301 301 301 301 301 302 302 302 302 302 301 301 300 300 301 303 304 305 305 305 305 306 306 307 308 309 310 311 312 312 311 312 312 312 312 311 311 312 312 312 312 312 311 311 312 314 315 315 315 315 315 315 315 315 315 314 313 312 312 312 312 312 311 310 309 309 309 309 308 308 307 307 305 304 302 301 300 300 300
300 300 300 300 301 301 301 301 301 301 301 301 302 302 302 302 302 302 301 300 299 300 301 302 303 304 304 304 304 304 305 306 307 308 309 309 309 309 309 309 309 308 308 309 309 308 309 309 309 308 309 310 311 312 313 313 314 314 315 315 315 314 313 312 311 311 310 310 309 308 307 306 306 305 304 303 302 301 300 299 299 299 299 300 300
300 300 300 300 300 301 301 300 300 300 300 301 301 301 302 302 302 302 302 301 300 299 299 300 301 301 302 302 303 303 303 303 304 305 306 306 306 306 306 306 306 306 307 307 308 307 307 307 306 305 305 304 304 304 305 305 305 306 307 309 310 311 311 309 307 305 304 304 304 302 301 300 300 299 299 299 299 299 299 299 300 300 300 301 301
300 300 300 300 299 300 300 300 300 300 300 300 300 300 301 302 302 302 302 302 301 299 299 299 300 300 300 300 300 301 302 302 303 303 304 304 304 304 303 303 303 304 304 305 305 305 305 305 304 303 302 301 301 301 300 300 300 300 301 301 302 303 303 301 300 299 299 298 298 298 298 298 297 298 299 299 300 300 301 301 301 301 302 302 302
300 300 299 299 299 298 298 299 300 300 300 300 300 300 300 301 301 301 301 301 301 300 299 300 301 301 301 300 299 299 299 300 301 301 302 302 303 303 302 302 302 302 303 303 303 303 303 303 303 302 301 301 302 302 302 301 299 298 298 298 298 298 298 298 297 297 297 297 297 298 298 298 298 299 299 300 300 301 301 301 301 301 301 301 301
300 299 299 299 299 298 298 298 299 299 300 300 300 300 300 300 301 301 301 301 301 300 299 300 301 302 302 302 301 300 299 299 298 299 299 300 300 301 301 300 300 300 301 302 302 302 302 303 303 303 303 303 303 303 302 301 298 297 297 297 297 297 297 297 297 297 297 298 298 299 299 300 300 300 300 300 301 301 301 301 301 301 301 301 301
300 299 299 299 299 299 299 298 298 298 299 300 300 300 300 300 300 300 301 301 301 300 299 299 301 301 301 302 302 302 301 301 300 299 299 298 298 298 299 300 300 300 301 301 301 302 302 302 303 303 304 303 303 303 302 299 297 297 297 297 297 297 297 298 298 298 298 298 299 299 300 300 301 301 301 301 302 301 301 301 301 301 301 301 300
299 299 299 299 299 299 299 298 298 298 298 299 300 299 300 300 300 300 300 301 301 300 300 300 300 301 301 301 301 301 301 301 301 301 300 299 298 297 298 299 301 302 302 303 303 303 303 303 303 304 304 304 303 302 301 298 297 297 297 297 297 297 297 297 298 298 298 299 299 300 300 301 301 301 301 301 301 300 300 300 300 299 299 299 299
300 299 299 298 299 299 299 298 298 298 298 298 299 299 299 299 300 300 300 300 300 300 300 300 300 300 300 300 301 301 301 301 301 301 301 300 299 298 297 297 298 300 301 301 302 302 302 302 302 302 303 303 302 300 298 297 297 297 297 297 297 297 297 298 298 299 299 299 299 299 300 300 300 300 300 299 299 298 298 298 298 298 298 298 298
299 299 298 298 298 298 298 298 298 298 298 298 299 299 299 299 300 300 300 300 300 300 300 300 300 300 300 300 300 300 300 300 300 301 301 301 300 299 298 297 297 297 297 298 298 298 298 298 298 298 299 299 299 298 297 297 297 297 297 297 298 298 298 299 299 299 299 299 299 299 299 299 299 299 298 298 297 297 297 297 297 297 297 297 297
Wind_Speed
18 18 18 16 15 14 13 16 18 15 12 12 15 15 14 14 15 16 16 16 17 19 18 17 17 16 15 17 17 15 16 17 17 17 18 19 20 22 21 21 19 17 17 19 17 15 15 15 14 15 15 14 15 14 14 15 14 12 11 11 11 11 12 12 13 15 16 15 14 12 10 10 9 8 7 8 8 8 9 9 8 8 7 6 7
20 21 20 18 17 17 18 20 20 16 13 14 16 16 14 14 14 16 17 17 17 17 17 17 17 16 14 14 15 14 15 16 17 17 18 19 21 22 21 20 19 17 17 19 18 16 16 15 15 15 13 13 14 13 13 14 13 13 11 11 12 11 12 13 14 15 16 15 15 14 12 11 10 10 10 9 9 10 10 10 8 8 8 7 8
22 22 24 23 21 20 21 22 20 17 16 16 17 17 15 15 14 15 17 17 16 15 16 17 16 15 14 13 14 14 14 14 14 15 16 18 20 21 21 20 19 17 16 18 17 17 16 15 16 14 12 11 12 13 12 12 12 12 11 11 12 12 12 13 15 15 15 15 15 15 14 14 13 12 12 11 11 11 11 10 10 10 10 11 11
26 25 25 24 23 23 24 23 22 20 17 18 19 20 19 17 14 14 15 15 15 15 15 16 16 15 14 14 14 14 14 14 14 14 15 18 21 22 22 21 19 17 16 17 16 16 15 14 15 14 11 10 12 12 11 10 11 11 11 11 11 12 14 15 16 15 14 15 17 15 15 16 16 15 16 14 13 12 11 11 12 12 12 13 11
30 29 26 25 25 25 24 23 23 19 17 20 23 24 20 17 15 13 13 15 15 15 16 17 18 18 17 17 17 16 16 16 17 16 16 19 22 22 22 22 20 18 17 17 17 15 13 12 12 13 12 11 12 12 11 10 11 11 12 12 13 14 15 16 17 16 14 15 17 16 15 15 17 19 18 15 12 11 11 11 13 14 13 12 11
29 27 27 27 26 25 23 21 21 19 18 22 26 25 20 17 16 15 15 17 17 16 18 20 21 21 21 21 20 19 17 18 18 18 18 19 22 23 23 22 21 19 18 17 16 14 12 11 12 13 13 12 13 12 11 10 11 12 13 14 15 16 15 16 18 18 17 17 17 17 16 14 18 22 19 15 12 11 12 13 14 15 13 13 12
31 30 30 30 30 28 26 22 22 22 21 24 27 25 21 19 18 18 18 18 19 19 20 21 22 21 21 20 20 19 17 18 18 17 18 19 21 22 22 22 21 19 17 15 14 12 12 12 12 12 12 12 13 13 11 11 11 11 13 15 16 16 16 17 19 19 19 20 18 18 16 13 18 22 21 19 17 15 15 16 16 15 14 14 12
33 29 28 27 28 29 27 25 24 24 25 27 28 26 23 22 20 20 20 17 18 21 22 22 22 21 20 19 18 17 16 18 18 17 18 19 19 20 21 21 21 18 16 14 12 11 12 11 10 12 14 14 13 12 12 11 12 12 12 15 16 16 16 17 19 19 20 20 20 19 15 12 17 20 19 19 21 22 19 16 13 12 13 15 12
20 18 18 17 18 20 22 23 23 23 26 27 26 25 25 25 22 22 21 17 18 22 23 23 21 21 21 19 18 18 17 18 19 19 20 20 19 19 21 21 20 18 16 14 12 11 11 10 10 12 15 14 12 12 12 12 13 13 13 15 15 14 15 16 18 19 19 20 20 19 15 14 19 19 16 17 19 24 22 16 13 12 15 15 12
11 11 14 14 15 16 18 20 21 21 23 25 26 27 28 27 24 25 25 22 20 22 24 24 22 21 22 20 20 22 20 21 22 21 22 21 20 19 19 19 18 17 16 13 11 11 10 9 10 12 13 12 12 12 13 13 13 12 12 15 14 14 15 17 18 18 19 20 20 18 16 18 21 20 18 18 19 22 22 19 16 18 21 17 11
11 8 8 10 13 16 18 20 19 18 20 25 28 29 28 27 26 26 26 24 22 21 22 24 23 23 23 23 23 25 24 24 25 24 23 21 20 19 17 17 16 15 14 13 12 11 11 10 10 12 12 13 13 13 13 13 12 11 12 14 14 14 15 17 18 18 20 22 20 17 15 18 21 21 21 20 19 20 21 22 20 20 22 18 13
13 11 8 6 9 13 16 18 17 16 18 22 26 27 25 25 26 26 25 23 22 21 21 24 25 25 25 25 25 25 26 25 25 24 23 21 20 18 17 17 16 15 14 14 13 12 12 11 11 12 12 13 13 13 13 12 12 11 11 13 13 14 15 16 17 18 21 23 21 18 15 15 18 19 19 20 19 17 20 24 22 20 19 15 13
11 11 9 8 10 12 13 13 14 15 15 17 21 23 23 23 24 25 25 24 23 21 22 26 27 27 27 26 25 25 26 24 23 24 23 21 21 20 19 18 18 18 16 14 13 13 12 11 11 10 9 10 10 11 12 12 12 11 10 12 13 13 14 15 15 18 21 21 20 18 16 15 17 18 17 18 18 17 18 21 21 19 17 14 13
11 7 6 8 10 11 12 13 13 13 13 16 21 24 24 23 23 24 24 23 22 22 24 28 29 28 27 27 26 26 26 24 23 23 23 22 22 21 20 19 18 17 16 14 13 13 12 11 10 9 8 8 9 10 11 11 12 12 12 12 12 12 14 13 13 17 19 20 20 19 17 15 17 18 17 17 18 18 18 18 18 18 15 15 17
13 9 5 2 4 6 9 11 12 12 11 15 21 24 24 23 23 23 23 23 22 23 27 30 30 30 29 28 28 26 25 24 23 23 23 22 22 21 20 18 16 15 15 14 14 13 12 11 10 10 9 8 8 9 11 12 13 12 12 12 12 13 14 13 14 16 18 20 20 20 18 15 16 19 17 17 18 18 18 18 18 18 16 17 19
17 13 9 4 3 3 4 6 8 10 13 18 22 23 23 25 24 23 23 23 22 23 28 31 32 32 30 29 28 26 25 25 24 23 22 21 21 21 19 16 15 15 14 13 13 12 11 10 11 10 9 9 9 9 10 12 13 13 12 13 14 14 14 13 14 16 17 18 20 20 19 15 15 18 18 17 18 19 19 19 18 16 17 20 20
20 16 13 9 8 8 8 8 6 5 8 15 21 22 22 24 23 21 21 23 22 23 27 32 33 32 32 31 30 28 27 27 26 24 22 20 19 18 17 16 15 13 12 12 12 10 10 10 10 10 10 9 9 9 9 10 11 12 12 13 14 14 14 14 14 15 17 18 19 19 19 17 15 17 19 17 18 21 20 18 19 16 13 19 23
21 18 15 12 11 13 14 13 10 6 5 7 13 17 18 19 19 19 21 21 20 22 27 32 33 33 33 32 30 29 29 28 26 24 22 21 19 18 17 16 14 11 11 11 11 10 11 10 9 8 9 10 10 10 10 10 10 11 11 11 12 12 13 15 14 15 17 18 17 16 17 17 17 17 18 17 18 23 22 19 20 19 13 14 20
22 21 19 18 18 17 18 18 16 12 9 9 10 13 14 15 17 18 20 20 20 23 28 32 32 33 33 31 30 30 29 29 27 25 23 22 20 19 16 14 12 11 11 11 11 12 13 12 10 8 7 10 12 12 11 10 10 12 12 12 13 13 14 16 16 16 16 17 17 16 16 17 17 17 18 17 18 22 25 21 20 20 16 14 16
24 23 22 22 23 22 21 20 18 16 13 11 10 11 13 13 15 16 15 16 19 24 29 32 32 33 32 31 31 32 30 30 29 27 25 23 21 19 16 14 13 13 12 12 13 15 17 15 11 9 9 11 12 12 12 11 11 11 12 13 14 14 14 16 17 16 15 16 17 16 16 16 17 18 18 18 19 22 26 24 21 22 19 15 17
26 25 25 25 25 24 23 21 18 14 12 10 8 9 10 10 11 10 11 15 19 23 29 31 31 32 32 31 33 32 30 30 31 29 26 25 22 20 17 15 15 14 13 14 14 15 16 14 10 9 10 11 12 12 11 11 12 11 11 12 13 13 15 15 16 16 15 16 17 17 17 16 16 18 17 18 20 21 24 24 22 22 18 12 16
26 27 27 27 26 24 23 21 18 15 13 11 7 6 5 6 7 6 10 16 17 19 26 29 29 31 31 31 32 31 29 30 31 30 27 25 23 20 18 16 15 14 14 14 14 15 14 12 11 10 9 9 11 13 11 10 11 11 10 11 12 13 15 15 15 15 15 15 16 15 17 16 15 17 17 18 19 19 21 23 22 20 15 11 15
24 27 28 27 26 24 21 19 18 17 17 16 10 3 1 3 4 8 15 18 14 14 20 26 27 28 28 30 31 28 28 30 30 29 27 24 22 20 19 17 16 15 15 14 14 16 15 12 11 11 11 9 9 11 12 10 9 10 10 10 11 12 14 15 14 14 14 14 15 15 16 15 14 18 19 17 18 18 19 22 21 16 11 10 14
23 24 25 26 25 24 21 19 18 18 17 17 15 9 3 0 0 4 12 16 14 11 14 22 24 25 24 25 27 27 28 30 28 26 25 22 22 21 20 18 17 17 16 14 15 18 16 14 13 13 12 10 8 10 13 11 10 11 10 10 10 10 11 12 12 12 12 13 13 14 15 14 13 18 19 18 18 18 19 22 19 14 11 11 14
23 24 25 27 28 28 26 23 21 19 17 16 15 12 6 1 0 0 3 7 9 6 11 18 22 24 24 23 25 27 28 29 27 25 24 22 21 21 21 20 19 18 16 15 18 18 15 13 12 11 11 11 11 13 14 12 12 11 11 11 11 9 9 10 10 10 9 10 11 12 14 14 14 18 19 17 17 18 21 21 15 12 13 14 14
23 24 26 27 28 28 27 25 23 20 17 15 13 12 8 4 1 3 3 4 8 12 16 20 22 24 26 26 26 28 28 28 27 26 25 23 21 21 21 21 20 19 17 17 18 16 13 12 11 11 14 16 16 16 14 12 11 11 10 11 11 11 11 11 11 10 8 8 10 12 13 14 15 19 19 16 15 16 19 19 13 11 14 15 13
23 24 26 27 27 28 27 26 24 21 17 15 13 12 10 8 4 2 2 2 9 16 19 22 25 27 29 28 28 28 29 29 28 27 25 23 23 21 22 22 20 19 18 18 17 14 12 14 14 14 17 19 18 18 17 15 14 12 11 11 11 12 12 12 12 11 11 10 9 10 13 14 15 18 19 17 15 13 15 17 14 13 15 15 14
24 25 26 26 26 27 27 27 25 22 19 15 14 14 11 9 6 3 2 1 8 15 19 23 28 30 30 30 28 27 29 29 29 27 25 24 24 22 21 21 19 19 20 19 17 14 14 15 15 15 17 18 17 17 18 18 16 16 16 14 11 10 11 13 15 14 13 13 11 9 11 14 16 19 20 19 16 12 12 15 14 12 16 16 15
26 26 26 26 26 27 27 27 26 24 22 19 17 16 13 9 5 4 4 4 6 12 19 25 29 30 31 32 30 28 28 29 29 27 25 24 24 23 22 21 19 21 23 20 18 17 16 15 16 17 17 17 15 14 16 18 17 18 19 17 14 13 14 16 18 15 13 13 10 8 9 12 15 19 21 21 18 13 12 14 11 9 14 18 17
25 26 26 26 26 26 27 27 27 27 25 24 22 21 18 13 7 4 3 4 7 12 18 24 28 29 30 31 32 31 30 29 28 27 25 24 25 24 23 22 21 22 23 21 19 18 16 15 16 16 16 16 16 15 15 17 17 16 18 18 16 15 16 17 17 15 12 11 8 7 8 10 11 14 18 20 19 15 12 13 11 8 12 17 17
24 25 26 26 26 26 27 27 27 27 26 26 26 24 22 19 14 8 4 4 7 11 16 21 26 28 29 29 30 31 33 31 29 27 26 25 26 25 24 23 22 23 23 23 22 19 17 17 17 16 14 14 15 16 15 16 15 13 15 17 17 15 14 13 13 12 11 10 9 8 9 9 9 10 13 16 16 16 14 13 12 10 11 14 15
24 25 26 27 27 26 26 26 25 25 25 25 25 24 22 21 18 14 11 9 7 9 15 21 25 26 26 27 28 30 33 33 31 28 27 27 27 25 24 24 24 24 24 25 23 19 17 18 17 16 15 14 14 15 16 16 14 12 14 15 15 15 13 11 11 11 11 11 11 11 11 11 11 9 10 12 12 13 13 12 12 12 10 11 12
25 27 28 28 27 26 25 25 24 24 24 23 22 21 21 19 17 14 12 11 10 10 12 19 24 25 25 26 29 30 30 32 32 29 27 27 27 25 25 26 26 25 26 26 23 20 18 17 16 14 13 13 14 14 16 17 16 15 15 15 15 14 12 10 11 12 13 13 13 14 14 13 11 11 10 11 12 12 11 12 12 12 11 10 10
25 27 28 28 28 27 26 25 25 24 23 22 21 20 18 16 15 13 11 9 7 6 9 14 20 22 21 23 28 29 27 29 31 29 27 27 27 27 27 28 27 26 26 26 23 20 18 16 16 13 10 11 13 14 15 18 18 17 16 15 15 14 11 10 11 12 15 17 15 14 14 12 11 11 11 11 12 12 13 13 13 14 14 12 12
25 26 27 27 28 28 27 27 26 26 25 25 24 21 18 17 17 16 15 14 12 8 2 6 13 16 17 18 24 28 27 28 30 30 29 29 29 30 30 29 29 27 26 24 22 20 17 16 15 12 9 10 13 13 14 17 19 19 16 15 15 14 12 12 13 13 17 19 16 15 14 13 11 11 10 11 11 12 12 12 12 12 13 14 15
24 25 24 24 25 26 26 26 26 26 28 28 27 24 21 21 21 20 19 18 17 17 14 10 8 10 17 20 22 26 28 29 30 31 32 32 33 33 33 31 30 28 26 23 20 18 17 15 14 12 10 12 13 13 14 15 17 19 18 15 15 14 13 13 13 13 15 17 15 14 13 13 12 11 10 11 12 12 11 12 11 11 11 12 14
21 22 22 22 23 25 25 26 27 28 28 28 27 26 24 24 24 24 23 22 21 22 21 19 19 16 18 22 23 26 29 31 33 34 34 34 34 34 33 32 30 28 25 22 19 17 16 15 14 13 12 12 13 14 14 14 15 16 17 17 17 16 14 13 13 12 12 12 12 12 11 12 12 11 11 12 13 12 12 12 12 12 12 12 13
21 21 23 23 24 25 27 27 29 30 29 28 26 25 24 26 27 26 25 26 26 26 25 24 24 23 20 20 22 24 27 30 33 33 33 33 32 31 30 29 28 26 22 18 17 16 16 15 15 15 13 13 13 14 14 15 15 15 15 16 16 16 14 14 14 13 11 11 12 11 11 11 11 10 11 11 11 12 12 12 12 12 13 13 14
22 22 24 24 24 25 26 28 30 31 30 29 28 26 25 27 28 27 27 29 29 28 27 27 25 23 22 20 19 21 23 27 30 29 29 29 28 27 26 24 22 20 17 15 13 13 14 15 15 15 15 14 14 15 15 16 16 16 15 15 15 15 15 15 16 15 13 12 12 12 11 11 10 10 10 10 10 10 10 11 12 13 13 14 15
22 23 23 24 24 25 26 27 28 29 29 30 30 30 30 30 29 29 29 29 29 28 27 27 25 21 19 19 18 19 21 24 24 22 21 21 19 19 19 18 16 14 12 12 11 10 12 14 14 14 15 15 14 15 16 17 18 18 17 16 16 16 16 16 17 16 15 13 12 12 11 10 10 9 9 9 9 10 11 11 12 13 14 15 16
21 21 22 22 23 25 25 26 26 26 27 28 30 31 32 33 32 32 30 28 25 23 23 24 24 23 21 20 18 17 19 20 19 15 14 14 13 12 13 12 11 10 9 10 10 10 12 13 13 13 13 14 14 14 15 16 17 18 18 16 16 15 15 15 15 14 13 11 10 9 9 9 9 9 9 10 10 11 12 13 14 15 15 16 17
19 20 20 21 21 22 24 24 24 24 24 24 26 29 30 31 32 32 30 27 24 22 21 20 21 22 21 21 20 18 18 19 16 13 12 13 13 13 12 12 10 9 9 9 9 9 10 11 11 10 10 11 12 11 12 13 13 15 16 15 15 14 12 12 12 11 10 9 9 9 9 9 10 11 12 13 14 14 14 14 14 14 14 14 15
20 20 19 19 19 19 21 22 22 22 22 22 23 25 26 27 28 27 26 26 26 25 24 23 22 21 21 20 20 19 17 17 16 15 15 17 17 15 15 15 15 14 13 12 10 8 8 8 8 8 8 8 9 9 9 9 10 10 11 13 14 13 13 12 11 10 10 10 10 11 11 11 12 12 12 12 11 11 11 11 10 10 10 10 11
18 18 17 18 18 17 17 18 19 20 21 21 22 22 23 24 24 22 22 23 24 24 26 27 25 24 22 20 19 18 16 14 13 12 13 16 18 18 18 18 18 17 15 14 13 11 8 7 7 7 8 8 8 8 7 6 6 6 7 8 10 11 11 10 8 7 7 8 8 9 9 8 8 7 6 5 4 4 3 4 5 5 5 6 7
16 16 16 16 16 15 15 15 17 19 20 21 21 21 21 21 21 20 21 21 21 20 22 24 25 24 23 21 19 18 17 15 14 12 11 12 14 15 15 15 15 16 16 16 14 12 9 8 6 4 5 7 8 8 7 7 5 3 3 4 5 5 5 5 4 3 3 4 4 5 5 5 3 1 1 2 2 2 1 1 1 2 3 4 5
13 14 15 16 16 17 16 14 15 17 18 19 20 20 19 17 17 18 18 18 19 19 18 20 22 21 21 21 20 19 18 17 15 14 13 12 11 12 12 12 12 13 13 13 13 11 9 6 4 2 4 6 8 8 8 8 7 4 3 2 2 2 3 2 2 2 2 2 3 4 4 4 4 5 5 4 4 3 2 2 2 3 4 5 5
14 15 15 16 17 18 18 18 18 17 16 17 18 18 18 16 15 16 16 15 17 19 17 16 17 18 17 18 19 18 19 18 17 15 14 13 12 11 11 10 10 9 8 8 8 8 6 4 2 1 3 5 6 7 8 7 7 5 5 4 3 3 4 4 5 5 5 6 7 8 8 7 6 6 5 4 3 2 2 3 3 5 7 8 7
18 18 17 16 15 15 15 18 20 19 16 15 15 17 18 16 13 14 15 14 15 18 17 15 14 14 14 15 16 16 17 17 17 16 15 14 12 10 9 7 7 7 6 6 5 6 6 5 3 2 1 3 5 6 6 6 5 4 5 5 5 5 6 6 6 7 7 8 8 8 7 7 6 5 4 4 3 3 3 5 6 7 9 9 9
16 17 17 16 16 15 12 15 19 19 14 13 12 13 14 14 12 12 13 13 13 15 15 15 14 13 14 13 13 14 14 14 14 14 16 16 14 10 7 6 6 7 7 7 7 7 6 5 4 3 2 1 2 4 4 4 3 4 5 6 7 7 7 7 7 7 7 7 6 5 4 4 3 3 2 3 3 4 5 6 7 8 9 10 11
13 16 18 18 19 16 12 13 17 17 13 13 11 9 10 12 12 12 10 9 10 11 11 13 13 12 12 12 11 11 12 12 12 11 12 15 16 14 11 8 7 6 6 5 6 6 5 4 3 3 3 2 1 1 2 2 5 6 7 8 9 10 10 10 9 8 8 7 6 4 3 1 0 1 2 4 5 6 7 7 7 7 8 9 10
12 14 16 16 16 15 12 13 17 15 13 14 10 8 10 11 9 9 10 7 7 8 8 9 10 9 9 10 11 9 9 10 10 9 9 12 15 16 15 13 11 8 6 4 3 2 2 1 1 1 2 2 2 2 3 5 7 9 10 11 12 12 12 12 11 9 8 7 6 5 3 2 3 4 5 6 8 8 8 8 7 8 9 10 10
Wind_Direction
187 185 187 192 185 175 170 156 162 187 201 206 202 195 191 189 194 193 190 194 186 181 186 188 185 182 191 198 199 204 208 204 201 204 203 203 204 202 201 201 207 214 203 196 199 196 200 205 204 210 212 203 203 207 207 209 215 225 220 204 204 196 185 188 190 190 183 172 166 160 158 163 167 171 173 177 175 172 172 169 164 156 147 137 123
187 189 184 184 180 169 167 164 164 175 191 201 192 185 184 182 196 199 191 192 191 189 186 186 188 187 189 199 200 196 200 208 206 199 195 200 204 203 203 200 201 205 196 193 200 200 202 206 204 205 205 204 205 207 209 212 216 223 219 205 203 199 188 187 190 189 185 183 177 162 155 159 167 167 167 174 172 166 166 162 157 154 146 133 123
192 193 188 186 183 176 179 177 167 169 187 193 185 186 186 178 191 203 197 193 193 192 188 186 190 189 185 192 197 190 194 208 205 194 194 200 203 202 201 199 197 198 192 192 199 201 201 204 206 202 199 205 205 204 209 213 218 219 211 207 205 197 193 190 188 188 189 189 181 171 167 163 163 169 170 173 175 170 167 162 155 152 139 125 121
200 199 194 189 187 191 193 181 164 166 181 186 190 199 192 178 181 195 203 202 193 188 189 190 189 187 183 186 193 190 189 197 199 198 201 202 201 200 199 197 197 196 191 194 199 200 199 203 208 202 201 211 204 202 211 216 221 218 210 210 207 201 199 192 188 195 197 190 180 172 170 168 167 171 171 170 173 170 165 161 149 140 134 127 128
207 207 208 203 197 197 194 178 164 169 184 188 195 202 194 183 177 183 205 208 196 190 188 188 185 181 180 180 185 187 188 193 197 200 202 199 197 197 198 195 195 195 194 197 200 201 202 206 208 205 209 217 209 205 211 216 218 217 213 211 207 205 204 197 192 196 197 194 190 176 166 174 176 171 169 169 167 163 163 162 148 137 135 134 135
214 218 221 215 204 199 196 182 175 181 189 189 192 195 197 196 184 181 199 205 202 199 193 188 185 183 182 180 182 187 189 191 194 197 196 193 191 193 196 193 191 191 192 196 198 200 204 208 208 208 210 216 216 210 209 212 213 212 212 209 206 204 205 203 195 193 190 189 196 190 180 184 180 170 168 166 159 159 160 153 145 140 137 136 142
211 219 223 218 207 206 203 192 189 187 182 185 188 191 201 203 191 186 191 198 202 203 200 194 190 190 188 185 188 192 192 190 187 190 192 187 182 187 190 189 190 190 190 194 198 202 206 209 209 205 204 213 219 213 208 210 207 205 206 205 206 203 202 204 197 193 189 185 191 196 193 190 182 176 173 165 154 149 148 143 142 145 143 146 162
207 212 217 213 205 205 206 201 197 188 179 185 192 195 200 199 196 193 190 195 202 200 201 200 195 194 189 188 194 194 191 187 181 182 186 182 179 182 185 187 189 191 193 196 199 205 206 205 205 201 199 206 216 212 206 204 200 200 199 197 203 204 201 201 200 197 191 187 188 192 193 185 181 184 182 173 157 145 143 140 143 157 157 160 178
199 205 207 203 194 192 197 198 194 185 180 187 197 199 196 193 196 198 194 201 205 196 198 201 198 196 190 188 188 185 185 181 176 176 176 176 176 178 181 185 188 191 194 195 195 197 200 201 202 204 202 201 209 210 202 200 197 195 194 194 199 201 198 198 201 201 194 191 190 189 189 178 175 181 183 180 164 150 149 146 148 164 161 165 185
174 202 212 215 207 191 189 193 191 187 186 190 196 195 191 190 196 201 197 199 203 194 194 199 195 190 188 185 179 175 178 177 172 172 172 173 174 175 179 182 184 188 190 189 189 189 191 194 195 203 204 199 206 207 197 196 194 188 189 193 196 196 194 196 199 199 194 194 193 190 188 179 175 179 181 181 170 159 157 154 155 166 164 163 173
156 184 216 225 218 204 200 202 199 199 200 196 193 192 191 192 197 203 198 195 199 193 192 197 190 184 184 182 177 173 174 174 171 171 172 175 176 175 178 179 178 183 185 181 182 184 182 180 184 194 195 192 197 195 186 187 188 187 189 189 193 195 193 195 197 197 196 195 193 191 189 186 184 183 182 182 177 170 164 160 160 166 168 166 163
156 185 203 197 193 197 203 208 209 210 208 198 193 193 195 196 199 205 202 198 199 192 192 197 188 182 184 182 179 177 174 173 171 170 171 173 175 174 175 175 175 179 180 174 174 179 177 173 181 188 188 189 191 182 174 178 182 185 191 189 188 193 195 195 196 198 199 197 195 193 191 194 195 190 186 185 186 181 169 167 170 169 168 165 160
127 168 180 168 170 183 195 206 212 215 210 201 196 193 194 199 205 208 205 201 200 193 191 195 187 182 185 183 180 179 177 175 171 169 168 167 168 169 169 170 171 174 174 168 169 174 171 169 179 184 182 189 191 176 164 174 183 180 188 193 189 194 197 195 196 199 200 201 202 199 194 196 200 196 189 186 189 185 171 169 176 181 181 171 158
71 105 136 149 158 174 189 199 206 214 211 202 197 194 194 197 201 207 208 205 202 196 192 190 184 185 188 182 178 178 176 174 169 168 166 163 164 165 165 167 167 166 164 163 166 169 165 162 172 179 174 178 186 174 161 168 182 181 183 192 194 198 197 193 199 202 203 205 205 202 196 194 196 196 192 188 188 185 175 167 166 174 186 175 157
34 38 54 125 155 178 194 201 209 218 221 207 196 197 202 200 198 203 207 210 209 196 188 186 184 187 189 182 176 176 174 171 168 167 165 161 162 163 163 164 161 159 160 163 165 166 166 160 161 169 170 169 177 176 164 165 176 181 182 187 192 194 193 194 200 204 205 201 200 201 199 195 196 197 195 191 191 186 176 173 169 161 164 167 161
25 23 22 0 324 281 250 251 244 236 233 219 202 199 207 207 207 208 202 206 213 199 186 186 187 189 188 181 176 173 173 170 165 164 163 160 160 160 159 159 158 160 164 165 166 168 169 161 157 164 166 163 168 173 167 162 170 178 181 184 186 185 189 194 196 199 200 196 197 200 198 196 198 196 196 192 190 184 172 177 187 175 160 163 167
28 23 18 3 348 345 345 332 310 284 252 229 211 206 211 209 211 218 211 203 206 202 190 188 189 189 185 180 175 172 172 169 164 161 161 159 158 156 156 158 163 168 168 169 172 168 160 154 153 159 160 158 158 165 165 160 166 176 181 185 184 181 188 193 191 195 195 191 197 200 199 201 198 192 194 192 186 182 174 176 192 197 181 167 168
34 30 22 7 356 356 358 355 343 329 303 258 226 217 220 215 209 219 223 215 214 213 202 195 192 186 181 179 175 173 171 169 165 162 161 160 160 160 162 166 167 165 162 166 171 164 156 155 158 161 161 159 152 154 161 160 164 172 176 185 185 182 190 190 185 188 187 185 191 196 198 201 199 193 192 191 185 181 177 176 185 196 203 181 172
31 30 27 22 17 13 10 8 0 348 328 301 263 232 224 220 211 213 220 222 231 230 214 203 195 184 180 178 175 173 171 168 166 165 164 165 166 167 168 165 160 156 158 166 168 163 160 161 168 177 172 159 150 150 157 154 158 167 168 175 182 183 188 189 186 189 190 190 192 194 197 197 197 196 191 189 187 181 179 179 182 190 197 194 184
27 26 24 23 21 19 19 16 11 6 352 325 286 240 224 224 219 221 228 226 231 234 222 209 198 186 180 177 174 174 172 169 168 170 169 169 170 170 167 159 156 157 160 164 164 161 164 169 176 180 171 159 151 150 156 151 154 166 163 164 178 184 181 182 189 195 194 194 195 197 201 200 198 197 192 189 186 182 182 182 183 189 194 201 204
23 22 22 20 17 18 19 16 13 14 7 346 306 252 239 246 235 237 250 235 230 236 228 215 201 190 182 177 175 175 172 169 170 172 171 172 172 169 165 159 154 154 153 153 153 153 162 169 163 153 150 151 149 148 153 153 154 163 162 162 173 181 176 174 183 190 187 187 194 199 202 203 200 197 192 188 185 184 186 187 188 192 196 210 217
15 16 19 18 16 17 18 17 16 17 22 18 341 279 247 245 232 224 229 226 235 246 233 217 203 193 186 181 178 175 173 171 173 175 175 174 172 165 162 158 150 147 146 145 144 141 141 141 135 132 137 146 149 150 153 154 154 157 162 166 167 168 170 171 177 182 183 186 191 196 199 201 201 197 191 187 186 187 188 190 192 194 201 225 222
10 11 15 17 16 18 17 17 17 19 29 39 36 13 232 210 215 221 219 221 244 257 225 206 198 194 187 183 181 178 177 176 176 178 178 174 170 164 159 155 148 145 143 142 144 140 134 135 140 142 143 147 152 155 157 160 159 157 159 166 166 162 163 167 172 175 177 182 186 189 192 195 195 192 190 188 187 189 188 186 188 193 203 220 213
12 12 15 18 20 22 20 18 18 20 26 37 47 54 60 203 289 245 230 234 258 265 211 192 195 196 189 184 184 181 178 178 179 180 180 174 168 163 159 153 148 145 142 141 141 138 140 152 159 160 163 168 164 152 151 153 155 158 160 159 159 158 155 157 163 166 169 176 182 187 189 193 193 188 186 187 188 190 187 184 186 190 196 206 203
18 18 20 23 24 25 26 25 24 25 27 32 39 46 51 65 3 147 220 239 251 231 192 194 199 200 197 191 187 184 180 179 181 182 180 175 169 164 158 153 151 148 143 140 140 141 150 161 160 162 172 168 146 132 132 132 134 143 152 156 159 161 161 160 155 152 164 180 186 188 191 193 189 184 184 186 189 192 190 188 194 203 205 210 204
22 22 25 26 25 24 26 28 29 29 29 30 31 31 35 32 272 196 166 177 185 178 183 198 204 203 201 195 189 187 183 181 183 184 181 175 171 166 158 154 154 150 144 142 141 141 152 159 147 141 148 146 137 135 137 140 142 141 139 144 153 155 154 158 153 143 147 171 183 189 192 191 187 184 185 184 184 189 191 194 206 215 208 205 198
25 26 28 27 24 24 26 27 28 30 30 29 26 22 24 23 2 255 222 177 182 186 190 196 200 201 202 198 192 188 184 182 184 185 182 176 170 165 159 156 154 149 141 137 135 133 143 158 157 145 142 144 146 149 151 153 157 157 148 140 145 152 156 164 165 153 142 144 155 175 189 192 190 188 186 182 181 187 193 202 218 219 204 196 194
27 28 29 27 26 26 28 28 27 28 28 27 22 17 20 22 10 338 303 227 192 195 193 192 195 198 201 202 199 191 185 185 186 185 181 175 169 163 160 158 154 147 140 137 143 152 157 161 165 162 154 152 153 153 155 156 154 155 156 152 147 151 159 168 169 160 148 142 141 153 175 183 186 188 187 185 186 192 197 207 222 218 202 197 196
27 28 27 28 29 29 29 29 27 26 25 23 20 16 16 17 8 341 305 267 226 209 199 195 197 199 200 203 202 198 189 185 185 186 181 173 166 161 160 158 153 148 144 145 156 166 166 160 160 162 160 157 155 153 158 162 158 152 155 158 153 141 136 147 156 154 145 143 145 146 154 162 172 184 192 190 190 196 199 203 210 196 193 201 199
26 28 29 31 33 33 31 30 28 26 23 22 20 16 13 13 8 348 293 254 242 231 217 210 208 206 205 202 198 197 194 187 183 183 179 170 162 160 162 161 154 149 149 154 162 164 166 167 165 161 159 158 158 155 157 166 169 164 162 164 162 151 141 144 151 151 146 146 149 147 145 148 159 180 196 198 199 204 206 206 208 184 179 194 196
29 30 33 35 37 37 36 34 30 27 25 23 21 18 15 12 8 360 331 270 241 236 231 225 219 214 211 205 196 194 195 190 182 176 172 166 162 162 165 162 154 152 156 162 167 167 169 177 181 177 169 165 162 159 158 163 169 172 172 171 171 169 163 156 155 158 159 155 154 156 157 161 167 178 195 202 206 212 214 215 221 210 184 185 190
37 37 38 39 40 40 39 38 35 30 28 26 23 20 19 16 12 8 349 322 288 251 235 228 223 220 218 209 198 195 196 188 179 175 172 168 166 166 166 161 156 157 162 166 171 173 174 182 190 190 186 182 174 167 164 162 160 161 165 164 165 167 165 161 161 168 170 163 162 169 171 173 180 186 194 201 206 213 220 225 229 229 216 204 202
43 44 43 43 44 45 43 42 40 35 31 29 27 27 28 26 23 19 1 336 317 290 254 228 219 222 225 214 200 196 192 182 176 176 173 168 167 166 164 162 161 163 166 169 174 179 180 185 189 189 190 193 189 179 171 165 159 156 156 154 156 162 161 162 170 174 173 171 170 174 176 176 182 192 199 205 207 210 218 223 224 227 228 221 218
46 47 46 47 48 49 48 47 45 42 39 37 35 36 37 37 38 38 32 21 359 315 267 230 218 223 227 215 203 200 191 178 176 177 174 171 171 167 163 164 165 166 168 170 175 180 182 184 183 182 186 189 191 189 180 173 168 162 157 156 160 168 166 158 160 162 162 166 170 175 180 179 177 184 192 198 204 210 215 219 221 224 226 225 225
46 47 46 46 47 48 50 50 49 49 47 45 44 43 43 45 48 50 52 53 52 46 51 198 204 215 217 203 197 199 194 179 173 175 176 176 173 168 165 167 168 167 169 171 175 180 181 180 180 184 184 175 176 181 181 179 178 175 170 164 161 167 169 160 155 153 152 157 162 168 176 177 173 177 186 191 197 205 212 216 220 223 227 231 233
44 45 44 44 45 46 48 51 52 53 52 51 50 49 51 54 54 55 58 60 61 57 56 70 104 154 177 176 175 183 187 180 173 174 174 171 169 169 169 170 170 169 171 172 174 179 181 181 182 181 171 159 157 163 170 175 181 183 184 177 166 165 169 166 162 161 158 159 162 167 174 177 175 177 186 194 200 204 208 213 216 219 224 232 236
49 48 47 49 50 52 53 53 53 53 52 52 52 51 54 57 57 58 59 59 61 59 56 53 55 80 128 147 148 155 167 171 169 168 169 166 163 164 166 170 173 172 172 173 174 175 176 178 177 169 161 156 151 151 157 162 168 175 179 177 173 172 173 170 167 168 168 170 173 177 180 182 181 183 187 195 203 208 212 217 221 226 230 233 237
57 54 52 52 55 57 58 56 54 53 51 51 51 51 53 55 55 57 58 57 56 54 57 60 53 54 78 103 117 128 144 157 157 154 158 161 160 158 160 166 172 171 171 173 175 175 173 173 173 169 166 166 160 153 154 157 158 163 171 176 180 180 176 171 169 168 169 174 182 187 190 190 191 193 194 199 207 214 222 231 236 241 245 246 247
61 57 53 53 55 58 61 59 57 54 51 51 51 50 52 53 53 54 55 56 55 52 53 59 58 52 53 62 75 91 113 137 146 143 144 151 154 154 155 160 166 170 174 178 178 177 175 173 175 175 173 171 169 165 163 163 161 160 165 174 181 183 176 170 170 172 172 177 186 193 200 204 207 211 214 221 227 233 239 245 249 253 257 259 262
65 64 60 56 54 55 58 59 57 55 53 51 51 51 51 50 50 52 52 52 53 54 54 57 60 58 53 52 55 62 79 105 123 127 129 135 140 144 149 156 164 170 176 176 172 175 177 172 171 174 174 172 173 172 171 172 171 169 166 166 172 177 176 174 177 180 181 185 193 202 211 219 227 234 241 244 246 250 254 258 263 268 271 274 276
63 65 63 59 56 55 56 57 57 56 54 52 51 51 50 49 48 48 48 47 48 52 55 57 59 61 60 60 61 59 61 73 88 97 106 114 119 126 137 146 151 155 163 167 167 171 172 164 159 164 169 169 169 172 173 175 178 180 178 174 174 175 175 177 181 184 189 196 207 217 227 240 251 258 262 262 264 267 271 275 278 280 283 285 286
61 61 61 59 58 57 57 57 56 57 56 55 54 53 51 49 48 46 43 42 44 49 54 58 60 62 63 62 63 65 67 70 79 90 98 102 105 111 119 123 124 127 138 147 152 159 161 156 151 152 159 164 166 170 175 179 183 188 190 191 191 187 184 186 190 194 203 215 228 239 247 254 261 268 272 274 277 281 283 285 287 288 290 291 290
59 58 59 59 58 58 58 56 55 55 55 54 55 55 53 50 48 47 44 42 41 44 48 52 55 58 62 63 63 65 71 77 83 92 98 97 96 98 103 107 107 106 108 109 108 115 133 144 145 141 141 149 157 165 175 182 187 192 196 200 204 205 208 212 213 214 220 231 243 255 263 266 268 272 277 281 283 285 286 288 291 293 295 296 295
58 55 55 55 55 57 59 57 54 53 52 51 53 55 57 54 50 48 48 45 43 44 46 47 47 48 52 58 64 67 71 75 79 85 95 99 98 97 97 99 100 98 96 94 90 87 94 108 118 126 131 130 130 141 151 153 157 172 185 195 204 211 219 225 228 225 225 228 235 245 256 266 273 279 286 292 295 295 291 287 287 290 294 297 300
61 54 48 45 46 49 53 56 54 51 50 51 52 52 54 56 55 53 52 48 44 46 50 49 47 44 44 46 51 59 65 70 74 79 90 102 107 107 103 102 105 104 98 95 94 87 75 72 78 95 110 105 100 104 107 101 98 116 156 182 196 203 211 220 223 218 215 216 218 220 226 238 249 234 112 107 108 120 143 180 215 245 271 282 294
51 43 39 40 43 45 46 47 47 47 48 50 50 48 47 53 58 55 50 43 37 39 50 56 52 47 44 42 41 43 47 51 56 62 69 84 100 108 106 104 108 114 114 110 109 105 97 92 86 50 47 63 67 69 73 69 61 64 83 101 136 150 157 167 165 147 128 113 109 117 132 148 153 149 151 154 155 163 186 219 254 279 292 300 311
46 44 43 46 49 49 47 45 42 40 43 46 45 41 40 51 63 55 43 37 36 37 45 58 59 53 48 45 43 44 45 46 46 45 45 50 58 69 78 83 88 98 113 120 121 127 132 138 157 342 12 32 42 47 51 47 39 47 67 78 90 101 108 112 110 107 108 107 107 113 122 133 145 153 164 173 176 191 236 269 289 297 300 304 306
54 51 47 46 47 46 48 48 41 34 37 44 42 36 36 44 53 47 40 38 41 43 47 57 62 58 54 50 47 45 46 50 52 53 53 51 52 57 67 81 93 98 111 130 149 163 171 180 200 229 304 6 25 32 31 26 25 42 68 87 99 100 101 103 102 102 106 109 114 124 132 137 143 149 160 178 194 219 251 271 280 283 286 289 288
51 43 36 34 31 30 42 50 38 29 35 43 37 32 35 36 29 29 40 49 49 52 59 63 63 62 58 54 51 46 45 47 48 52 57 59 64 75 91 116 138 142 144 154 169 178 176 173 178 187 196 199 29 14 2 4 34 67 83 90 96 98 98 100 100 102 105 109 112 122 134 145 157 171 199 229 250 268 279 286 288 287 287 289 289
44 38 34 32 28 30 46 47 28 18 24 31 31 35 36 29 19 16 23 40 46 51 65 72 73 73 66 59 55 50 46 47 43 43 52 59 64 73 85 101 127 148 160 171 185 198 204 209 219 225 222 219 231 7 12 49 76 86 90 89 89 91 93 97 100 101 99 95 89 88 99 129 242 314 323 330 332 329 327 324 318 313 306 301 300
41 36 35 33 28 28 36 28 14 12 21 27 33 40 22 13 18 17 9 8 21 30 50 68 67 67 69 66 63 57 48 44 40 37 50 60 61 65 72 78 84 89 96 110 135 164 197 217 212 191 178 152 125 107 96 89 87 89 89 88 87 91 97 102 104 102 98 92 83 75 68 36 4 357 356 355 348 342 340 336 328 324 321 317 315